Location: Keppel Henge
(44.7900°N, 80.9447°W)
Time: 14:17:55
(UTC-05:00)

NUDT-PHONESAT - Visible Passes

Search period start: 16 December 2018 00:00
Search period end: 26 December 2018 00:00
Orbit: 489 x 510 km, 97.4° (Epoch: 16 December)

Date Brightness Start Highest point End Pass type
(mag) Time Alt. Az. Time Alt. Az. Time Alt. Az.
16 Dec ? 06:30:38 10° NNE 06:34:05 41° E 06:37:32 10° S visible
16 Dec ? 18:44:22 10° SSW 18:47:21 24° W 18:50:22 10° NW visible
17 Dec ? 06:11:14 10° NE 06:14:14 24° E 06:17:14 10° SSE visible
17 Dec ? 18:24:03 10° S 18:27:31 40° W 18:30:59 10° NNW visible
18 Dec ? 05:52:16 10° ENE 05:54:20 14° E 05:56:24 10° SE visible
18 Dec ? 18:04:05 10° S 18:07:43 74° WSW 18:11:22 10° NNW visible
19 Dec ? 07:04:56 10° N 07:08:34 70° WNW 07:12:11 10° SSW visible
19 Dec ? 17:44:23 10° SSE 17:47:58 62° ENE 17:51:35 10° N visible
20 Dec ? 06:45:11 10° NNE 06:48:48 64° E 06:52:24 10° S visible
20 Dec ? 17:24:57 10° SE 17:28:16 35° ENE 17:31:37 10° N visible
20 Dec ? 18:59:48 10° SW 19:02:09 16° W 19:04:30 10° NW visible
21 Dec ? 06:25:36 10° NNE 06:28:59 35° E 06:32:21 10° SSE visible
21 Dec ? 18:39:07 10° SSW 18:42:15 27° W 18:45:23 10° NW visible
22 Dec ? 06:06:17 10° NE 06:09:07 21° E 06:11:56 10° SE visible
22 Dec ? 18:18:53 10° S 18:22:24 47° W 18:25:55 10° NNW visible
23 Dec ? 05:47:30 10° ENE 05:49:10 13° E 05:50:51 10° ESE visible
23 Dec ? 07:19:40 10° N 07:23:10 45° WNW 07:26:39 10° SW visible
23 Dec ? 17:58:58 10° SSE 18:02:35 86° WSW 18:06:15 10° NNW visible
24 Dec ? 06:59:46 10° N 07:03:26 82° WNW 07:07:05 10° SSW visible
24 Dec ? 17:39:19 10° SSE 17:42:51 52° ENE 17:46:24 10° N visible
24 Dec ? 19:15:53 10° WSW 19:16:55 11° W 19:17:55 10° WNW visible
25 Dec ? 06:40:03 10° NNE 06:43:38 55° E 06:47:13 10° S visible
25 Dec ? 17:19:56 10° SE 17:23:09 30° ENE 17:26:22 10° N visible
25 Dec ? 18:54:21 10° SW 18:56:56 18° W 18:59:33 10° NW visible
